Погода в Акирасе

Бразилия     3°57′32″S   38°18′59″W
темп.,
°C
ветер,
м/с
пор.,
м/с
влажн.,
%
обл.,
%
осадки,
мм/ч
давл.,
гПа
погр.,
м
26 февраля, пт
пт2600:00+26всв478568 4.3 1010519
03:00+25св458684 8.9 1008359
06:00+26всв358599 6.6 1009290
09:00+28всв457795 9.9 1011669
12:00+28всв457199 2.3 1010820
15:00+28св567594 2.8 1008810
18:00+26св468379 0.9 1008414
21:00+26св578789 3.6 1010523
27 февраля, сб
сб2700:00+26всв4686100 2.3 1010460
03:00+25всв3587100 5.1 1008379
06:00+25в358789 1.4 1010387
09:00+27в457949 2.8 1011778
12:00+28в567764 1.7 1010844
15:00+28в567683 3.1 1008774
18:00+26всв4686100 2.6 1008365
21:00+26всв478688 2.9 1009422
28 февраля, вс
вс2800:00+26в4786100 0.4 1009508
03:00+26в458689 1.6 1008432
06:00+25вюв45878 1.4 1009410
09:00+27вюв468110 3.1 1011753
12:00+28вюв567716 1.3 1009834
15:00+28в567623 1.8 1006789
18:00+26всв468453 0.0 1007311
21:00+26в588477 0.8 1008433
1 марта, пн
пн100:00+26в588695 0.3 1008512
03:00+26вюв578687 1.2 1007546
06:00+25вюв468820 0.9 1008416
09:00+27вюв578131 2.8 1010866
12:00+29в787027 1.6 10081089
15:00+28в567115 1.6 1005976
18:00+27всв578110 0.0 1006481
21:00+26всв57825 1.2 1009414
2 марта, вт
вт200:00+26всв688123 0.9 1009558
03:00+25в588712 4.6 1008556
06:00+25в58857 2.9 1009540
09:00+28вюв68794 5.0 1011982
12:00+29в68725 1.2 10101092
15:00+29в68713 1.3 10081038
18:00+27в57807 0.0 1009559
21:00+27в698111 0.6 1011594